Home > Weather > Rawalpindi > Past weeks

Flag for Pakistan Past Weather in Rawalpindi, Pakistan — Yesterday and Last 2 Weeks

Now
88 °F

Passing clouds.


Feels Like: 98 °F
Forecast: 75 / 91 °F
Wind: 7 mph from Southeast

Location: Islamabad Airport

Current Time: Jul 30, 2016 at 4:26:45 PM

Latest Report: Jul 30, 2016 at 4:00 PM


Visibility: N/A

Pressure: 29.62 "Hg (28.00 "Hg at 501m altitude)

Humidity: 66%

Dew Point: 75 °F

Location of RawalpindiLocation

Past Weather in Rawalpindi — Graph

°F

Rawalpindi Temperature Yesterday

Maximum temperature yesterday: 93 °F (at 1:00 PM)
Minimum temperature yesterday: 81 °F (at 3:00 AM)
Average temperature yesterday: 87 °F

High & Low Weather Summary for the Past Weeks

 TemperatureHumidityPressure
High100 °F (Jul 21, 3:00 PM)100% (Jul 27, 2:00 AM)29.80 "Hg (Jul 27, 2:00 AM)
Low72 °F (Jul 16, 4:00 AM)42% (Jul 20, 3:00 PM)29.47 "Hg (Jul 15, 5:00 PM)
Average85 °F72%29.64 "Hg
* Reported Jul 15 3:00 PM — Jul 30 3:00 PM, Rawalpindi, Weather by CustomWeather, © 2016

Note: Actual official high and low records may vary slightly from our data, if they occured in-between our weather recording intervals... More about our weather records

Advertising

Rawalpindi Weather History for the Previous 24 Hours

Scroll right to see more
 ConditionsComfort  
Time TempWeatherWind HumidityBarometerVisibility
3:00 PM
Sat, Jul 30
86 °FScattered clouds.14 mph70%29.65 "HgN/A
2:30 PM84 °FScattered clouds.12 mph66%29.65 "HgN/A
2:00 PM84 °FScattered clouds.12 mph66%29.65 "HgN/A
1:00 PM82 °FScattered clouds.7 mph70%29.68 "HgN/A
12:00 PM81 °FScattered clouds.9 mph74%29.71 "HgN/A
11:00 AM75 °FBroken clouds.12 mph89%29.71 "HgN/A
10:30 AM73 °FBroken clouds.16 mph94%29.71 "HgN/A
10:00 AM73 °FBroken clouds.16 mph94%29.71 "HgN/A
9:30 AM73 °FBroken clouds.16 mph89%29.68 "HgN/A
9:00 AM73 °FBroken clouds.16 mph89%29.68 "HgN/A
8:00 AM73 °FBroken clouds.16 mph89%29.68 "HgN/A
7:30 AM73 °FBroken clouds.21 mph89%29.62 "HgN/A
7:00 AM73 °FBroken clouds.5 mph89%29.62 "HgN/A
6:00 AM72 °FThunderstorms. Broken clouds.12 mph94%29.59 "HgN/A
4:00 AM79 °FThunderstorms. Partly cloudy.40 mph84%29.65 "Hg1 mi
3:00 AM84 °FThunderstorms. Partly cloudy.14 mph74%29.62 "Hg3 mi
2:00 AM84 °FThundershowers. Partly cloudy.12 mph74%29.62 "Hg4 mi
1:00 AM84 °FThundershowers. Passing clouds.12 mph74%29.62 "Hg4 mi
12:30 AM86 °FPassing clouds.7 mph75%29.62 "Hg4 mi
12:00 AM86 °FPassing clouds.7 mph75%29.62 "Hg4 mi
11:30 PM
Fri, Jul 29
86 °FPassing clouds.12 mph75%29.62 "Hg4 mi
11:00 PM86 °FPassing clouds.12 mph75%29.62 "Hg4 mi
10:30 PM88 °FPassing clouds.7 mph70%29.59 "Hg4 mi
10:00 PM88 °FPassing clouds.7 mph70%29.59 "Hg4 mi
8:00 PM90 °FPassing clouds.5 mph67%29.56 "Hg4 mi
7:00 PM91 °FPassing clouds.7 mph63%29.56 "HgN/A
6:00 PM93 °FPassing clouds.9 mph59%29.53 "HgN/A
4:00 PM93 °FScattered clouds.14 mph56%29.56 "HgN/A
Weather by CustomWeather, © 2016

See weather overviewHow to use our weather pages